User: anonymous   Login
Location: Newark
(51.2625°N, 13.3939°E)
Time: 11:54:55
(UTC+00:00)
Language:

Transit 2A - Orbit

View from above orbital plane
View from above orbital plane
View from above satellite
View from above satellite

Ground track
Ground track

The orbit data is extracted from the following two-line orbital elements,

1    45U 60007A   19320.83841986 -.00000020 +00000-0 +21782-4 0  9991
2    45 066.6949 223.8201 0248634 111.7931 250.9823 14.33655769035218
Epoch (UTC): 16 November 2019 20:07:19
Eccentricity: 0.0248634
inclination: 66.6949°
perigee height: 601 km
apogee height: 957 km
right ascension of ascending node: 223.8201°
argument of perigee: 111.7931°
revolutions per day: 14.33655769
mean anomaly at epoch: 250.9823°
orbit number at epoch: 3521

The dashed part of the orbit path shows where the satellite is in the earth's shadow,  

DLR